Retour au catalogue

STARLINK-31138

ActifCommunicationsVLEO
NORAD 58806·PAYLOAD·🇺🇸 United States

Lancé Jan 15, 2024 depuis Cape Canaveral Space Force Station

Loading…

Prochains Passages (prochaines 24 heures)

TLE

FraisSource: CelesTrak SupGP

Époque: Sep 15, 2026, 02:48 UTC

1 58806C 24012V   26258.11715278 -.00021515  00000+0 -77933-3 0  2586
2 58806  43.0013 175.6009 0001404 270.7751 130.3747 15.27587402    13

Suivez STARLINK-31138 en temps réel avec AllMySat

Download on the App Store